Tracking 25372 objects as of 23-Jan-2022
HD Live streaming from Space Station
objects crossing your sky now

HISPASAT 1A

Track HISPASAT 1A now!
HISPASAT 1A is classified as:


NORAD ID: 22116
Int'l Code: 1992-060A
Perigee: 36,039.0 km
Apogee: 36,088.4 km
Inclination: 13.1 °
Period: 1,449.9 minutes
Semi major axis: 42434 km
RCS: 7.143 m2 (large)
Launch date: September 10, 1992
Source: Spain (SPN)
Launch site: FRENCH GUIANA (FRGUI)
aabbcc
Your satellite tracking list
Your tracking list is empty




NASA's NSSDC Master Catalog

Two Line Element Set (TLE):
1 22116U 92060A   22022.92419413 -.00000252  00000-0  00000+0 0  9999
2 22116  13.0918  21.6072 0005824 307.0407 244.3810  0.99316372103538
Source of the keplerian elements: AFSPC